Location: Bartshausen
(51.8454°N, 9.8167°E)
Time: 00:21:44
(UTC+00:00)

Meteor 1-24 Rocket - Pass Details

Date: 08 November 2025
Orbit: 788 x 926 km, 81.3° (Epoch: 04 December)

Event Time Altitude Azimuth Distance (km) Brightness Sun altitude
Rises 05:26:16 0° 221° (SW) 3,482 6.6 -9.7°
Reaches altitude 10° 05:28:59 10° 230° (SW) 2,525 5.8 -9.3°
Maximum altitude 05:34:08 33° 294° (WNW) 1,396 4.3 -8.6°
Drops below altitude 10° 05:39:09 10° 359° (N) 2,455 5.9 -7.8°
Sets 05:41:46 0° 9° (N) 3,372 6.7 -7.4°
